Rutland, VT

3:19 AM EDT on August 18, 2017 (GMT -0400)
Rutland State

Weather History for KRUT - November, 2010

Change the Weather History Date:

Tuesday, November 2, 2010

  Actual Average Record
Temperature  
Mean Temperature 37 °F -  
Max Temperature 39 °F - 79 °F (1950)
Min Temperature 35 °F - 17 °F (1992)
Degree Days  
Heating Degree Days 28    
Month to date heating degree days  
Since 1 July heating degree days  
Cooling Degree Days 0    
Month to date cooling degree days  
Year to date cooling degree days  
Moisture  
Dew Point 27 °F    
Average Humidity 67    
Maximum Humidity 81    
Minimum Humidity 56    
Precipitation  
Precipitation 0.00 in - 0.96 in (1984)
Month to date precipitation  
Year to date precipitation  
Sea Level Pressure  
Sea Level Pressure 30.40 in    
Wind  
Wind Speed 4 mph (NNW)    
Max Wind Speed 14 mph    
Max Gust Speed 21 mph    
Visibility 10 miles    
Events      
T = Trace of Precipitation, MM = Missing Value Source: NWS Daily Summary

Daily Weather History Graph

Daily Weather History Graph

Search for Another Location

Airport or City:

Trip Planner

Search our weather history database for the weather conditions in past years. The results will help you decide how hot, cold, wet, or windy it might be!

Date:

Astronomy

Nov. 02, 2010 Rise Set
Actual Time 7:28 AM EDT 5:41 PM EDT
Civil Twilight 6:58 AM EDT 6:11 PM EDT
Nautical Twilight 6:24 AM EDT 6:45 PM EDT
Astronomical Twilight 5:51 AM EDT 7:18 PM EDT
Moon 3:05 AM EDT (11/2) 3:24 PM EDT (11/2)
Length of Visible Light 11h 12m
Length of Day
10h 13m
Waning Crescent, 17% of the Moon is Illuminated
Nov 2
Waning Crescent
Nov 6
New
Nov 13
First Quarter
Nov 21
Full
Nov 28
Last Quarter

Hourly Weather History & Observations

Time (EDT) Temp. Windchill Dew Point Humidity Pressure Visibility Wind Dir Wind Speed Gust Speed Precip Events Conditions
12:15 AM 35.6 °F - 30.2 °F 81% 30.39 in 10.0 mi Calm Calm - N/A   Overcast
12:35 AM 35.6 °F - 30.2 °F 81% 30.39 in 10.0 mi Calm Calm - N/A   Overcast
12:55 AM 35.6 °F - 28.4 °F 75% 30.39 in 10.0 mi Calm Calm - N/A   Overcast
1:15 AM 35.6 °F - 28.4 °F 75% 30.39 in 10.0 mi Calm Calm - N/A   Overcast
1:35 AM 35.6 °F - 30.2 °F 81% 30.39 in 10.0 mi Calm Calm - N/A   Overcast
1:55 AM 35.6 °F - 30.2 °F 81% 30.39 in 10.0 mi Calm Calm - N/A   Overcast
2:15 AM 35.6 °F - 30.2 °F 81% 30.39 in 10.0 mi Calm Calm - N/A   Overcast
2:35 AM 35.6 °F - 30.2 °F 81% 30.39 in 10.0 mi Calm Calm - N/A   Overcast
2:55 AM 35.6 °F - 30.2 °F 81% 30.39 in 10.0 mi Calm Calm - N/A   Overcast
3:15 AM 35.6 °F - 28.4 °F 75% 30.39 in 10.0 mi Calm Calm - N/A   Overcast
3:35 AM 35.6 °F - 28.4 °F 75% 30.39 in 10.0 mi Calm Calm - N/A   Overcast
3:55 AM 35.6 °F - 28.4 °F 75% 30.38 in 10.0 mi Calm Calm - N/A   Overcast
4:15 AM 35.6 °F 32.8 °F 28.4 °F 75% 30.38 in 10.0 mi NNW 3.5 mph - N/A   Overcast
4:35 AM 35.6 °F 32.8 °F 28.4 °F 75% 30.38 in 10.0 mi North 3.5 mph - N/A   Overcast
4:55 AM 35.6 °F 32.8 °F 28.4 °F 75% 30.39 in 10.0 mi North 3.5 mph - N/A   Overcast
5:15 AM 35.6 °F 30.7 °F 28.4 °F 75% 30.39 in 10.0 mi NNW 5.8 mph - N/A   Overcast
5:35 AM 35.6 °F 30.7 °F 28.4 °F 75% 30.39 in 10.0 mi North 5.8 mph - N/A   Overcast
5:55 AM 35.6 °F 30.7 °F 26.6 °F 70% 30.39 in 10.0 mi NNW 5.8 mph - N/A   Overcast
6:15 AM 35.6 °F 30.7 °F 26.6 °F 70% 30.40 in 10.0 mi NW 5.8 mph - N/A   Overcast
6:35 AM 35.6 °F 30.7 °F 26.6 °F 70% 30.40 in 10.0 mi NNW 5.8 mph - N/A   Overcast
6:55 AM 35.6 °F 29.9 °F 26.6 °F 70% 30.40 in 10.0 mi NW 6.9 mph - N/A   Overcast
7:15 AM 35.6 °F 30.7 °F 26.6 °F 70% 30.40 in 10.0 mi NNW 5.8 mph - N/A   Overcast
7:35 AM 35.6 °F 30.7 °F 26.6 °F 70% 30.41 in 10.0 mi NW 5.8 mph - N/A   Overcast
7:55 AM 35.6 °F 29.9 °F 26.6 °F 70% 30.42 in 10.0 mi NNW 6.9 mph - N/A   Overcast
8:15 AM 35.6 °F 29.9 °F 26.6 °F 70% 30.43 in 10.0 mi NW 6.9 mph - N/A   Overcast
8:35 AM 35.6 °F 28.6 °F 26.6 °F 70% 30.44 in 10.0 mi NNW 9.2 mph - N/A   Overcast
8:55 AM 35.6 °F 29.2 °F 26.6 °F 70% 30.44 in 10.0 mi NNW 8.1 mph - N/A   Overcast
9:15 AM 35.6 °F 28.0 °F 26.6 °F 70% 30.44 in 10.0 mi NNW 10.4 mph - N/A   Overcast
9:35 AM 35.6 °F 27.5 °F 26.6 °F 70% 30.44 in 10.0 mi NNW 11.5 mph - N/A   Overcast
9:55 AM 35.6 °F 28.6 °F 26.6 °F 70% 30.44 in 10.0 mi North 9.2 mph - N/A   Overcast
10:15 AM 35.6 °F 27.5 °F 26.6 °F 70% 30.43 in 10.0 mi North 11.5 mph 16.1 mph N/A   Overcast
10:35 AM 37.4 °F 29.8 °F 24.8 °F 60% 30.43 in 10.0 mi NNW 11.5 mph 20.7 mph N/A   Overcast
10:55 AM 37.4 °F 31.4 °F 24.8 °F 60% 30.43 in 10.0 mi NNW 8.1 mph 16.1 mph N/A   Overcast
11:15 AM 37.4 °F 29.3 °F 24.8 °F 60% 30.43 in 10.0 mi NNW 12.7 mph 20.7 mph N/A   Overcast
11:35 AM 37.4 °F 30.3 °F 24.8 °F 60% 30.43 in 10.0 mi North 10.4 mph - N/A   Overcast
11:55 AM 37.4 °F 28.9 °F 24.8 °F 60% 30.42 in 10.0 mi NNW 13.8 mph 17.3 mph N/A   Overcast
12:15 PM 37.4 °F 31.4 °F 24.8 °F 60% 30.42 in 10.0 mi NNW 8.1 mph 17.3 mph N/A   Overcast
12:35 PM 37.4 °F 31.4 °F 24.8 °F 60% 30.41 in 10.0 mi NNW 8.1 mph - N/A   Overcast
12:55 PM 37.4 °F 30.3 °F 24.8 °F 60% 30.40 in 10.0 mi NW 10.4 mph - N/A   Overcast
1:15 PM 39.2 °F 33.0 °F 24.8 °F 56% 30.40 in 10.0 mi WNW 9.2 mph 16.1 mph N/A   Overcast
1:35 PM 39.2 °F 32.5 °F 24.8 °F 56% 30.40 in 10.0 mi NNW 10.4 mph - N/A   Overcast
1:55 PM 39.2 °F 32.5 °F 24.8 °F 56% 30.40 in 10.0 mi WNW 10.4 mph - N/A   Overcast
2:15 PM 39.2 °F 32.5 °F 24.8 °F 56% 30.40 in 9.0 mi WNW 10.4 mph - N/A   Overcast
2:35 PM 39.2 °F 32.5 °F 24.8 °F 56% 30.40 in 10.0 mi NW 10.4 mph - N/A   Overcast
2:55 PM 39.2 °F 34.2 °F 24.8 °F 56% 30.39 in 10.0 mi NW 6.9 mph - N/A   Mostly Cloudy
3:15 PM 39.2 °F 32.5 °F 24.8 °F 56% 30.39 in 10.0 mi NNW 10.4 mph - N/A   Mostly Cloudy
3:35 PM 39.2 °F 35.0 °F 24.8 °F 56% 30.38 in 10.0 mi NNW 5.8 mph - N/A   Partly Cloudy
3:55 PM 39.2 °F 33.6 °F 24.8 °F 56% 30.38 in 10.0 mi NNW 8.1 mph - N/A   Clear
4:15 PM 39.2 °F 34.2 °F 24.8 °F 56% 30.38 in 10.0 mi NW 6.9 mph - N/A   Clear
4:35 PM 39.2 °F 35.9 °F 24.8 °F 56% 30.38 in 10.0 mi NNW 4.6 mph - N/A   Clear
4:55 PM 39.2 °F 34.2 °F 24.8 °F 56% 30.37 in 10.0 mi NNW 6.9 mph - N/A   Clear
5:15 PM 39.2 °F 35.0 °F 24.8 °F 56% 30.37 in 10.0 mi NW 5.8 mph - N/A   Clear
5:35 PM 37.4 °F 34.9 °F 24.8 °F 60% 30.36 in 10.0 mi NNW 3.5 mph - N/A   Clear
5:55 PM 37.4 °F 33.8 °F 24.8 °F 60% 30.36 in 10.0 mi NW 4.6 mph - N/A   Clear
6:15 PM 37.4 °F - 24.8 °F 60% 30.36 in 10.0 mi Calm Calm - N/A   Clear
6:35 PM 33.8 °F 29.6 °F 24.8 °F 70% 30.36 in 10.0 mi SE 4.6 mph - N/A   Clear
6:55 PM 32.0 °F 28.7 °F 23.0 °F 69% 30.35 in 10.0 mi SE 3.5 mph - N/A   Clear
7:15 PM 30.2 °F 26.7 °F 24.8 °F 80% 30.35 in 10.0 mi SE 3.5 mph - N/A   Clear
7:35 PM 30.2 °F 25.4 °F 24.8 °F 80% 30.35 in 10.0 mi SE 4.6 mph - N/A   Clear
7:55 PM 28.4 °F - 24.8 °F 86% 30.35 in 10.0 mi Calm Calm - N/A   Clear
8:15 PM 28.4 °F 23.3 °F 23.0 °F 80% 30.35 in 10.0 mi SE 4.6 mph - N/A   Clear
8:35 PM 28.4 °F 23.3 °F 24.8 °F 86% 30.34 in 10.0 mi ESE 4.6 mph - N/A   Clear
8:55 PM 28.4 °F 23.3 °F 24.8 °F 86% 30.34 in 10.0 mi SE 4.6 mph - N/A   Clear
9:15 PM 28.4 °F 23.3 °F 24.8 °F 86% 30.34 in 10.0 mi ESE 4.6 mph - N/A   Clear
9:35 PM 28.4 °F 23.3 °F 21.2 °F 74% 30.35 in 10.0 mi South 4.6 mph - N/A   Clear
9:55 PM 28.4 °F 23.3 °F 24.8 °F 86% 30.35 in 10.0 mi SE 4.6 mph - N/A   Clear
10:15 PM 28.4 °F 20.4 °F 24.8 °F 86% 30.34 in 10.0 mi SE 8.1 mph - N/A   Clear
10:35 PM 26.6 °F 21.2 °F 21.2 °F 80% 30.34 in 10.0 mi SSE 4.6 mph - N/A   Clear
10:55 PM 26.6 °F 21.2 °F 23.0 °F 86% 30.34 in 10.0 mi SE 4.6 mph - N/A   Clear
11:15 PM 26.6 °F - 23.0 °F 86% 30.33 in 10.0 mi Calm Calm - N/A   Clear
11:35 PM 26.6 °F 21.2 °F 23.0 °F 86% 30.33 in 10.0 mi SSE 4.6 mph - N/A   Clear
11:55 PM 26.6 °F 20.0 °F 21.2 °F 80% 30.33 in 10.0 mi SE 5.8 mph - N/A   Clear